YZ-1 R/B (44866 NORAD) Tracking and Keplerian Element Data

This shows tracking and keplerian element data for the satellite.

Feedback or suggestion? Click here.




ElementValue
Catalog44866
NameYZ-1 R/B
Epoch Orbit50
Epoch Day14.05561909
Epoch Year2020
RAAN141.341
Inclination54.8424
Eccentricity0.007818
Argument of Perigee350.0312
Mean Anonmoly9.7785
Mean Motion1.78360567
Decay Rate2.1E-07
L11 44866U 19090C 20014.05561909 .00000021 00000-0 00000+0 0 9991
L22 44866 54.8424 141.3410 0078180 350.0312 9.7785 1.78360567 503

Live tracking and technical data element details for YZ-1 R/B (NORAD 44866). YZ-1 R/B can be tracked NOW for your location showing map with azimuth and elevation plus other details from your city location.

Track the satellite on the map from your city or location and see movement details for azimuth, elevation, latitude, longitude, range, height, and movement on the map or in text.







IsCatalogInMostPopularTable: catalog: 44866, numindb: 7
Update: records affected: 1



GetName: 44866 YZ-1 R/B

Hit Count: updated at: Mon, 20 Jan 2020 03:44:34 GMT